Location: *
(2.5500°S, 65.9667°W)
Time: 11:51:57
(UTC+00:00)

TIGRISAT - Visible Passes

Search period start: 25 June 2022 00:00
Search period end: 05 July 2022 00:00
Orbit: 602 x 687 km, 97.7° (Epoch: 24 June)

Date Brightness Start Highest point End Pass type
(mag) Time Alt. Az. Time Alt. Az. Time Alt. Az.
26 Jun ? 23:02:26 10° NNW 23:05:59 26° W 23:09:37 10° SW visible
27 Jun ? 09:37:55 10° ESE 09:41:02 18° E 09:44:07 10° NE visible
27 Jun ? 23:29:32 10° WNW 23:30:56 11° W 23:32:23 10° W visible
28 Jun ? 10:01:42 10° SSE 10:06:00 39° E 10:10:12 10° N visible
29 Jun ? 22:40:10 10° N 22:44:22 52° W 22:48:40 10° SSW visible
30 Jun ? 23:05:54 10° NNW 23:09:19 23° W 23:12:49 10° SW visible
01 Jul ? 09:41:03 10° SE 09:44:24 20° E 09:47:41 10° NNE visible
01 Jul ? 23:33:58 10° WNW 23:34:16 10° W 23:34:34 10° W visible
02 Jul ? 10:05:00 10° SSE 10:09:21 44° E 10:13:35 10° N visible
04 Jul ? 23:09:21 10° NNW 23:12:37 21° W 23:15:57 10° SW visible
